Location: Ertinghausen
(51.6624°N, 9.7874°E)
Time: 13:10:55
(UTC+00:00)

CZ-2C R/B - Pass Details

Date: 19 August 2024
Orbit: 703 x 903 km, 98.2° (Epoch: 14 September)

Event Time Altitude Azimuth Distance (km) Brightness Sun altitude
Rises 02:23:38 0° 9° (N) 3,238 7.2 -14.9°
Reaches altitude 10° 02:26:01 10° 2° (N) 2,337 6.2 -14.7°
Maximum altitude 02:30:46 38° 295° (WNW) 1,212 3.8 -14.1°
Enters shadow 02:34:00 19° 239° (WSW) 1,850 4.4 -13.8°
